Location: Godzisko
(49.9648°N, 19.4576°E)
Time: 07:19:43
(UTC+00:00)

IDEFIX/ARIANE 42P - Pass Details

Date: 20 April 2021
Orbit: 785 x 803 km, 98.4° (Epoch: 05 May)

Event Time Altitude Azimuth Distance (km) Brightness Sun altitude
Rises 02:16:29 0° 10° (N) 3,297 6.5 -12.6°
Reaches altitude 10° 02:18:52 10° 5° (N) 2,366 5.6 -12.3°
Maximum altitude 02:23:53 49° 292° (WNW) 1,016 2.9 -11.6°
Enters shadow 02:28:15 14° 221° (SW) 2,119 4.2 -11.1°
